Regional Weather Roundup
Issued by NWS

Home | Current Version | Previous Version | Graphics & Text | Print | Product List | Glossary On
Versions: 1 2 3 4 5 6 7 8 9 10 11 12 13 14 15 16 17 18 19 20 21 22 23 24 25 26 27 28 29 30 31 32 33 34 35 36 37 38 39 40 41 42 43 44 45 46 47 48 49 50
481
ASUS44 KLIX 261205
RWRLA
LOUISIANA WEATHER ROUNDUP
NATIONAL WEATHER SERVICE NEW ORLEANS LA
600 AM CST THU FEB 26 2015

NOTE: "FAIR" INDICATES FEW OR NO CLOUDS BELOW 12,000 FEET WITH NO
      SIGNIFICANT WEATHER AND/OR OBSTRUCTIONS TO VISIBILITY.
      SKY/WX - SKY CONDITION AND SIGNIFICANT WEATHER.
      TMP - AIR TEMPERATURE.    DP   - DEWPOINT TEMPERATURE.
      RH  - RELATIVE HUMIDITY.  PRES - PRESSURE.
      HX  - HEAT INDEX.         WCI  - WIND CHILL INDEX.

*  THESE STATIONS ARE NOT NWS OR FAA STATIONS AND ARE NOT UNDER
   NWS QUALITY CONTROL.

LAZ040-048-061>063-065-066-069-261300-
SOUTHEAST LOUISIANA

CITY           SKY/WX    TMP DP  RH WIND       PRES   REMARKS
N.O. AUDUBON   NOT AVBL
N.O. INTL ARPT CLOUDY    39  33  79 N10       29.95R WCI  32
6HR MIN TEMP:  39; 6HR MAX TEMP:  42;

N.O. LAKEFRONT CLOUDY    41  34  76 N18       29.95R
6HR MIN TEMP:  41; 6HR MAX TEMP:  44;

SLIDELL        CLOUDY    37  33  85 N8        29.94R WCI  31
6HR MIN TEMP:  37; 6HR MAX TEMP:  39;

BATON ROUGE    CLOUDY    35  32  88 N6        29.97R WCI  30
6HR MIN TEMP:  34; 6HR MAX TEMP:  36;

BOOTHVILLE     CLOUDY    42  38  85 N9G18     29.92R
6HR MIN TEMP:  41; 6HR MAX TEMP:  45;

BELLE CHASSE   CLOUDY    40  32  73 N9G18     29.93R WCI  34
6HR MIN TEMP:  40; 6HR MAX TEMP:  43;

BOGALUSA*        N/A     38  33  83 N9        29.96R WCI  31
6HR MIN TEMP:  38; 6HR MAX TEMP:  39;

GALLIANO*      CLOUDY    41  37  86 N13       29.93R
6HR MIN TEMP:  41; 6HR MAX TEMP:  44;

NEW ROADS*     CLOUDY    35  32  88 N9        29.99R WCI  28
6HR MIN TEMP:  35; 6HR MAX TEMP:  35;

GONZALES*      CLOUDY    36  33  90 N7        29.97R WCI  31
6HR MIN TEMP:  36; 6HR MAX TEMP:  38;

HAMMOND*       CLOUDY    37  32  81 N9        29.97R WCI  31
HOUMA*         NOT AVBL
PORT FOURCHON* NOT AVBL

$$

LAZ041-044-053-054-261300-
SOUTHWEST LOUISIANA

CITY           SKY/WX    TMP DP  RH WIND       PRES   REMARKS
LAKE CHARLES   CLOUDY    37  33  85 N7        30.01R WCI  32
6HR MIN TEMP:  37; 6HR MAX TEMP:  40;

LAFAYETTE      CLOUDY    36  32  85 N10       29.99R WCI  28
6HR MIN TEMP:  36; 6HR MAX TEMP:  38;

PATTERSON      CLOUDY    37  34  87 N9        29.98R WCI  31
6HR MIN TEMP:  37; 6HR MAX TEMP:  39;

SALT POINT       N/A     37  33  85 VRB7      29.96R WCI  32
6HR MIN TEMP:  37; 6HR MAX TEMP:  40;

NEW IBERIA     CLOUDY    37  31  78 N14       29.99R WCI  28
6HR MIN TEMP:  37; 6HR MAX TEMP:  39;

CHENAULT AIRPK NOT AVBL

$$

LAZ027-028-261300-
CENTRAL LOUISIANA

CITY           SKY/WX    TMP DP  RH WIND       PRES   REMARKS
FORT POLK      CLOUDY    34  32  90 N5        30.00R WCI  30
6HR MIN TEMP:  34; 6HR MAX TEMP:  35;

ALEXANDRIA INT CLOUDY    35  33  92 N5        29.99R WCI  31
6HR MIN TEMP:  35; 6HR MAX TEMP:  35;

ALEXANDRIA     CLOUDY    36  32  85 CALM      29.99R
6HR MIN TEMP:  36; 6HR MAX TEMP:  37;


$$

LAZ001-002-261300-
NORTHWEST LOUISIANA

CITY           SKY/WX    TMP DP  RH WIND       PRES   REMARKS
SHREVEPORT     CLOUDY    33  31  92 NW10      30.04R WCI  25
6HR MIN TEMP:  32; 6HR MAX TEMP:  34;

BARKSDALE AFB  CLOUDY    32  31  99 N9        30.05R WCI  24
6HR MIN TEMP:  29; 6HR MAX TEMP:  33;

DTN SHREVEPORT CLOUDY    31  28  89 NW8       30.06R WCI  23
6HR MIN TEMP:  29; 6HR MAX TEMP:  33;


$$

LAZ014-016-261300-
NORTHEAST LOUISIANA

CITY           SKY/WX    TMP DP  RH WIND       PRES   REMARKS
MONROE         CLOUDY    33  32  96 NW8       30.03R WCI  26
6HR MIN TEMP:  33; 6HR MAX TEMP:  34;

TALLULAH       CLOUDY    34  31  88 NW3       30.00R
6HR MIN TEMP:  33; 6HR MAX TEMP:  34;


$$




USA.gov is the U.S. government's official web portal to all federal, state and local government web resources and services.